When you browse on this site, cookies collect data to enhance your experience and personalize the content and advertising you see.
Visit our Privacy Policy to learn more. By continuing to use the site, you agree to this use of cookies and data.
  • In Hungary
  • List of Countries
  • For 7 days
  • Water Temperature
  • Weather Map
  • News
  • Weather Widgets
  • user-avatar
    Login

    Hourly Weather Kaiserslautern

    Today, 6 December, Friday

    Time Temperature Precipitation Wind Pressure Humidity
    00:00 -4°C° 0 mm 3 mps 742 mmHg 72%
    01:00 -4°C° 0 mm 3 mps 742 mmHg 73%
    02:00 -4°C° 0 mm 3 mps 742 mmHg 73%
    03:00 -4°C° 0 mm 3 mps 741 mmHg 74%
    04:00 -4°C° 0 mm 3 mps 741 mmHg 74%
    05:00 -2°C° 0 mm 3 mps 741 mmHg 75%
    06:00 -3°C° 0 mm 4 mps 741 mmHg 76%
    07:00 -3°C° 0 mm 4 mps 740 mmHg 77%
    08:00 -2°C° 0 mm 4 mps 740 mmHg 74%
    09:00 -2°C° 0 mm 5 mps 740 mmHg 71%
    10:00 -1°C° 0 mm 5 mps 740 mmHg 68%
    11:00 0°C° 0 mm 5 mps 739 mmHg 67%
    12:00 +1°C° 0 mm 5 mps 739 mmHg 66%
    13:00 +2°C° 0 mm 5 mps 739 mmHg 65%
    14:00 +2°C° 0 mm 6 mps 738 mmHg 68%
    15:00 +2°C° 0 mm 6 mps 738 mmHg 70%
    16:00 +2°C° 0 mm 6 mps 737 mmHg 72%
    17:00 +2°C° 0.1 mm 6 mps 737 mmHg 76%
    18:00 +2°C° 0.1 mm 7 mps 736 mmHg 80%
    19:00 +2°C° 0.1 mm 7 mps 736 mmHg 83%
    20:00 +2°C° 0.5 mm 7 mps 736 mmHg 86%
    21:00 +2°C° 0.5 mm 7 mps 736 mmHg 88%
    22:00 +3°C° 0.5 mm 7 mps 735 mmHg 91%
    23:00 +3°C° 0.7 mm 7 mps 735 mmHg 91%

    Tomorrow, 7 December, Saturday

    Time Temperature Precipitation Wind Pressure Humidity
    00:00 +4°C° 0.7 mm 7 mps 735 mmHg 91%
    01:00 +5°C° 0.7 mm 7 mps 735 mmHg 92%
    02:00 +5°C° 0.2 mm 7 mps 735 mmHg 91%
    03:00 +5°C° 0.2 mm 6 mps 736 mmHg 91%
    04:00 +5°C° 0.2 mm 6 mps 736 mmHg 90%
    05:00 +5°C° 0 mm 6 mps 736 mmHg 91%
    06:00 +5°C° 0 mm 5 mps 737 mmHg 91%
    07:00 +5°C° 0 mm 5 mps 737 mmHg 91%
    08:00 +5°C° 0 mm 5 mps 738 mmHg 91%
    09:00 +6°C° 0 mm 5 mps 738 mmHg 91%
    10:00 +6°C° 0 mm 5 mps 738 mmHg 90%
    11:00 +6°C° 0.1 mm 5 mps 739 mmHg 89%
    12:00 +6°C° 0.1 mm 5 mps 739 mmHg 87%
    13:00 +7°C° 0.1 mm 5 mps 739 mmHg 85%
    14:00 +6°C° 0 mm 5 mps 739 mmHg 87%
    15:00 +6°C° 0 mm 5 mps 739 mmHg 88%
    16:00 +6°C° 0 mm 5 mps 739 mmHg 89%
    17:00 +6°C° 0.1 mm 4 mps 739 mmHg 90%
    18:00 +6°C° 0.1 mm 4 mps 739 mmHg 91%
    19:00 +6°C° 0.1 mm 4 mps 740 mmHg 91%
    20:00 +5°C° 0 mm 4 mps 740 mmHg 92%
    21:00 +5°C° 0 mm 4 mps 740 mmHg 92%
    22:00 +5°C° 0 mm 4 mps 740 mmHg 92%
    23:00 +5°C° 0 mm 4 mps 739 mmHg 91%

    Day after tomorrow, 8 December, Sunday

    Time Temperature Precipitation Wind Pressure Humidity
    00:00 +5°C° 0 mm 3 mps 739 mmHg 91%
    01:00 +5°C° 0 mm 3 mps 739 mmHg 91%
    02:00 +4°C° 0 mm 4 mps 739 mmHg 89%
    03:00 +4°C° 0 mm 4 mps 738 mmHg 88%
    04:00 +4°C° 0 mm 4 mps 737 mmHg 87%
    05:00 +3°C° 0 mm 5 mps 737 mmHg 87%
    06:00 +4°C° 0 mm 6 mps 737 mmHg 88%
    07:00 +4°C° 0 mm 6 mps 736 mmHg 88%
    08:00 +5°C° 0 mm 7 mps 736 mmHg 86%
    09:00 +5°C° 0 mm 7 mps 735 mmHg 85%
    10:00 +6°C° 0 mm 8 mps 735 mmHg 84%
    11:00 +6°C° 0.1 mm 8 mps 734 mmHg 84%
    12:00 +6°C° 0.1 mm 9 mps 733 mmHg 84%
    13:00 +7°C° 0.1 mm 9 mps 733 mmHg 83%
    14:00 +7°C° 0.4 mm 9 mps 732 mmHg 85%
    15:00 +7°C° 0.4 mm 9 mps 732 mmHg 86%
    16:00 +7°C° 0.4 mm 8 mps 731 mmHg 87%
    17:00 +7°C° 0.3 mm 8 mps 731 mmHg 87%
    18:00 +8°C° 0.3 mm 7 mps 731 mmHg 87%
    19:00 +8°C° 0.3 mm 7 mps 731 mmHg 88%
    20:00 +8°C° 0.2 mm 7 mps 731 mmHg 83%
    21:00 +6°C° 0.2 mm 7 mps 731 mmHg 79%
    22:00 +6°C° 0.2 mm 7 mps 730 mmHg 75%
    23:00 +5°C° 0.4 mm 7 mps 730 mmHg 78%

    9 December, Monday

    Time Temperature Precipitation Wind Pressure Humidity
    00:00 +4°C° 0.4 mm 8 mps 730 mmHg 81%
    01:00 +4°C° 0.4 mm 8 mps 730 mmHg 85%
    02:00 +4°C° 0.1 mm 8 mps 730 mmHg 84%
    03:00 +2°C° 0.1 mm 8 mps 729 mmHg 83%
    04:00 +2°C° 0.1 mm 8 mps 729 mmHg 82%
    05:00 +2°C° 0.2 mm 9 mps 728 mmHg 83%
    06:00 +2°C° 0.2 mm 9 mps 728 mmHg 84%
    07:00 +2°C° 0.2 mm 10 mps 727 mmHg 86%
    08:00 +2°C° 0.3 mm 9 mps 727 mmHg 86%
    09:00 +2°C° 0.3 mm 9 mps 727 mmHg 87%
    10:00 +2°C° 0.3 mm 8 mps 727 mmHg 87%
    11:00 +2°C° 0.4 mm 8 mps 727 mmHg 87%
    12:00 +2°C° 0.4 mm 8 mps 727 mmHg 86%
    13:00 +2°C° 0.4 mm 8 mps 727 mmHg 86%
    14:00 +3°C° 0.2 mm 7 mps 727 mmHg 85%
    15:00 +3°C° 0.2 mm 7 mps 727 mmHg 85%
    16:00 +3°C° 0.2 mm 6 mps 728 mmHg 84%
    17:00 +3°C° 0.2 mm 6 mps 729 mmHg 84%
    18:00 +3°C° 0.2 mm 6 mps 730 mmHg 84%
    19:00 +3°C° 0.2 mm 6 mps 731 mmHg 85%
    20:00 +3°C° 0.1 mm 6 mps 732 mmHg 83%
    21:00 +3°C° 0.1 mm 6 mps 733 mmHg 81%
    22:00 +3°C° 0.1 mm 6 mps 734 mmHg 79%
    23:00 +2°C° 0 mm 5 mps 735 mmHg 79%

    10 December, Tuesday

    Time Temperature Precipitation Wind Pressure Humidity
    00:00 +1°C° 0 mm 5 mps 736 mmHg 79%
    01:00 +1°C° 0 mm 4 mps 737 mmHg 79%
    02:00 +1°C° 0 mm 4 mps 738 mmHg 80%
    03:00 0°C° 0 mm 5 mps 739 mmHg 82%
    04:00 0°C° 0 mm 5 mps 740 mmHg 84%
    05:00 0°C° 0 mm 5 mps 740 mmHg 84%
    06:00 0°C° 0 mm 5 mps 741 mmHg 85%
    07:00 -1°C° 0 mm 5 mps 742 mmHg 86%
    08:00 -1°C° 0 mm 5 mps 742 mmHg 86%
    09:00 0°C° 0 mm 5 mps 743 mmHg 87%
    10:00 0°C° 0 mm 5 mps 743 mmHg 87%
    11:00 0°C° 0 mm 5 mps 743 mmHg 84%
    12:00 +1°C° 0 mm 5 mps 743 mmHg 81%
    13:00 +3°C° 0 mm 4 mps 743 mmHg 78%
    14:00 +1°C° 0 mm 4 mps 742 mmHg 79%
    15:00 +1°C° 0 mm 4 mps 742 mmHg 80%
    16:00 +1°C° 0 mm 4 mps 741 mmHg 80%
    17:00 +1°C° 0 mm 4 mps 740 mmHg 82%
    18:00 0°C° 0 mm 4 mps 740 mmHg 83%
    19:00 0°C° 0 mm 4 mps 739 mmHg 84%
    20:00 0°C° 0 mm 5 mps 739 mmHg 83%
    21:00 +1°C° 0 mm 5 mps 738 mmHg 81%
    22:00 +1°C° 0 mm 5 mps 738 mmHg 80%
    23:00 +1°C° 0.1 mm 6 mps 737 mmHg 82%

    11 December, Wednesday

    Time Temperature Precipitation Wind Pressure Humidity
    00:00 +1°C° 0.1 mm 6 mps 736 mmHg 83%
    01:00 +2°C° 0.1 mm 6 mps 735 mmHg 85%
    02:00 +2°C° 0 mm 6 mps 734 mmHg 84%
    03:00 +2°C° 0 mm 6 mps 733 mmHg 82%
    04:00 +3°C° 0 mm 6 mps 732 mmHg 81%
    05:00 +3°C° 1 mm 7 mps 732 mmHg 84%
    06:00 +3°C° 1 mm 7 mps 731 mmHg 87%
    07:00 +3°C° 1 mm 7 mps 731 mmHg 90%
    08:00 +3°C° 0.7 mm 6 mps 731 mmHg 89%
    09:00 +3°C° 0.7 mm 6 mps 732 mmHg 89%
    10:00 +5°C° 0.7 mm 5 mps 733 mmHg 89%
    11:00 +5°C° 0 mm 5 mps 733 mmHg 83%
    12:00 +4°C° 0 mm 6 mps 733 mmHg 78%
    13:00 +4°C° 0 mm 6 mps 734 mmHg 73%
    14:00 +5°C° 0 mm 5 mps 733 mmHg 76%
    15:00 +3°C° 0 mm 5 mps 733 mmHg 78%
    16:00 +3°C° 0 mm 5 mps 733 mmHg 80%
    17:00 +2°C° 0 mm 5 mps 732 mmHg 81%
    18:00 +2°C° 0 mm 5 mps 732 mmHg 82%
    19:00 +1°C° 0 mm 5 mps 731 mmHg 82%
    20:00 +2°C° 0.6 mm 6 mps 730 mmHg 85%
    21:00 +1°C° 0.6 mm 8 mps 730 mmHg 87%
    22:00 +1°C° 0.6 mm 9 mps 729 mmHg 89%
    23:00 +1°C° 0.1 mm 9 mps 729 mmHg 86%
    Show more